Regional Weather Roundup
Issued by NWS

Home | Current Version | Previous Version | Graphics & Text | Print | Product List | Glossary On
Versions: 1 2 3 4 5 6 7 8 9 10 11 12 13 14 15 16 17 18 19 20 21 22 23 24 25 26 27 28 29 30 31 32 33 34 35 36 37 38 39 40 41 42 43 44 45 46 47 48 49 50
000
ASUS43 KMKX 252120
RWRWI

WISCONSIN REGIONAL WEATHER ROUNDUP
NATIONAL WEATHER SERVICE MILWAUKEE/SULLIVAN WI
400 PM CDT THU MAY 25 2017

NOTE: "FAIR" INDICATES FEW OR NO CLOUDS BELOW 12,000 FEET WITH NO
SIGNIFICANT WEATHER AND/OR OBSTRUCTIONS TO VISIBILITY.

WIZ001-002-006>008-014>016-023>028-252200-
NORTHWEST WISCONSIN

CITY           SKY/WX    TMP DP  RH WIND       PRES   REMARKS
SUPERIOR ARPT  NOT AVBL
ASHLAND        SUNNY     63  45  51 NE8       29.70F
HAYWARD        PTSUNNY   72  46  39 S14G21    29.66F
SIREN          SUNNY     68  47  47 CALM      29.66S
CUMBERLAND     PTSUNNY   68  48  49 SE9       29.66F
RICE LAKE      SUNNY     69  47  45 S8        29.67F
CHETEK         MOSUNNY   70  51  50 S7        29.66F
LADYSMITH      MOSUNNY   70  49  47 S5        29.67F
EAU CLAIRE     MOSUNNY   72  50  45 SE5       29.64F
MENOMONIE      PTSUNNY   73  52  47 S9G16     29.66S
NEW RICHMOND   CLOUDY    68  49  51 S10       29.66F
OSCEOLA        MOSUNNY   70  51  50 SE13G20   29.68S
$$

WIZ003>005-009-010-017-018-252200-
NORTH CENTRAL WISCONSIN

CITY           SKY/WX    TMP DP  RH WIND       PRES   REMARKS
MANITOWISH WTR MOSUNNY   68  46  45 NE5       29.68S
ARBOR VITAE    MOSUNNY   72  47  40 SE5       29.68S
WOODRUFF       MOSUNNY   72  47  40 SE5       29.68S
RHINELANDER    PTSUNNY   72  47  40 MISG      29.68F
EAGLE RIVER    SUNNY     70  42  36 E7        29.68F
LAND O LAKES   PTSUNNY   72  43  35 E9        29.70F
PHILLIPS       CLOUDY    70  48  45 SW3       29.66F
TOMAHAWK       PTSUNNY   69  48  46 SE3       29.67F
MEDFORD        CLOUDY    70  51  51 S8        29.67S
MERRILL        PTSUNNY   70  47  44 CALM      29.67F
$$

WIZ029-030-035-036-043>047-252200-
CENTRAL WISCONSIN

CITY           SKY/WX    TMP DP  RH WIND       PRES   REMARKS
WAUSAU         MOSUNNY   72  49  44 SW7       29.65S
MOSINEE        MOSUNNY   72  48  43 S3        29.68S
MARSHFIELD     MOSUNNY   72  50  45 SE7       29.66F
STEVENS POINT  MOSUNNY   69  48  47 S3        29.67F
WAUPACA        MOSUNNY   73  52  46 E9        29.67F
WAUTOMA        MOSUNNY   71  51  49 VRB5      29.67F
WISC RAPIDS    MOSUNNY   74  50  42 VRB3      29.67F
CAMP DOUGLAS   MOSUNNY   72  54  53 NE5       29.66S
$$

WIZ011>013-019>022-031-037>040-048>050-252200-
NORTHEAST WISCONSIN

CITY           SKY/WX    TMP DP  RH WIND       PRES   REMARKS
ANTIGO         PTSUNNY   69  51  51 SE6       29.69S
SHAWANO        MOSUNNY   73  51  44 E7        29.66F
OCONTO         PTSUNNY   66  49  53 E10       29.67R
STURGEON BAY   SUNNY     66  51  58 NE12      29.67S
GREEN BAY      SUNNY     68  54  60 NE13      29.67F
MANITOWOC      SUNNY     63  52  67 NE13      29.68R
APPLETON       MOSUNNY   70  46  43 NE14G21   29.66S
CLINTONVILLE   MOSUNNY   72  46  40 E8        29.66F
OSHKOSH        SUNNY     68  52  56 NE9       29.67S
$$

WIZ032>034-041-042-053>061-252200-
SOUTHWEST WISCONSIN

CITY           SKY/WX    TMP DP  RH WIND       PRES   REMARKS
LA CROSSE      MOSUNNY   73  56  54 SW8       29.65F
SPARTA         SUNNY     73  52  48 S7        29.66F
VIROQUA        PTSUNNY   71  51  50 MISG      29.68S
BOSCOBEL       MOSUNNY   73  53  49 VRB5      29.67S
PRAIRIE DU CHI SUNNY     72  51  47 SW5       29.66S
PLATTEVILLE    MOSUNNY   67  55  66 E3        29.69R
$$

WIZ056-057-062-063-064-067-068-252200-
SOUTH CENTRAL WISCONSIN

CITY           SKY/WX    TMP DP  RH WIND       PRES   REMARKS
REEDSBURG      PTSUNNY   69  51  52 CALM      29.66F
BARABOO/DELLS  PTSUNNY   72  52  48 E8        29.67S
LONE ROCK      MOSUNNY   71  53  52 CALM      29.66F
MINERAL POINT  MOSUNNY   70  54  56 CALM      29.68S
MADISON        PTSUNNY   69  54  58 NE10      29.66F
MIDDLETON      MOSUNNY   70  51  52 CALM      29.67F
WATERTOWN      PTSUNNY   67  54  64 NE7       29.66S
MONROE         MOSUNNY   68  50  52 CALM      29.67F
JANESVILLE     PTSUNNY   68  52  56 N8        29.67S
$$

WIZ051-052-058>065-066-070>072-252200-
SOUTHEAST WISCONSIN

CITY           SKY/WX    TMP DP  RH WIND       PRES   REMARKS
MILWAUKEE      MOSUNNY   61  51  70 NE16G22   29.66S
WAUKESHA       PTSUNNY   70  48  46 NE13      29.66S
MILWAUKEE/TIMM MOSUNNY   68  48  49 NE14      29.66R
RACINE         SUNNY     61  51  70 N13G22    29.68R
KENOSHA        MOSUNNY   67  52  58 N14G21    29.65S
FOND DU LAC    SUNNY     70  52  52 NE13      29.67S
SHEBOYGAN      PTSUNNY   61  55  81 NE15      29.67R
WEST BEND      PTSUNNY   66  50  55 NE8       29.65S
JUNEAU         PTSUNNY   67  53  59 N9        29.67F
$$

LSZ147-162-252200-
LAKE SUPERIOR

STATION/POSITION TIME  TEMP    WIND        PRES    WAVE
                       AIR SEA DIR/SP/G            HT/PER
                 (UTC) (F)     (DEG/KT/KT) (MB)    (FT/S)
$$

LMZ867-665-643>646-252200-
LAKE MICHIGAN

STATION/POSITION TIME  TEMP    WIND        PRES    WAVE
                       AIR SEA DIR/SP/G            HT/PER
                 (UTC) (F)     (DEG/KT/KT) (MB)    (FT/S)
$$

TC  - TEMPERATURE IN CELSIUS
VSB - VISIBILITY IN STATUTE MILES
WCI - WIND CHILL INDEX
HX  - HEAT INDEX




USA.gov is the U.S. government's official web portal to all federal, state and local government web resources and services.